User: anonymous   Login
Location: Marineo
(37.9500°N, 13.4170°E)
Time: 00:34:10
(UTC+02:00)
Language:

ISS - Orbit

View from above orbital plane
View from above orbital plane
View from above satellite
View from above satellite

Ground track
Ground track

The orbit data is extracted from the following two-line orbital elements,

1 25544U 98067A   21129.65990017  .00000834  00000-0  23299-4 0  9996
2 25544  51.6443 173.2858 0002904 339.5975 167.0679 15.48988653282628
Epoch (UTC): 09 May 2021 15:50:15
Eccentricity: 0.0002904
inclination: 51.6443°
perigee height: 418 km
apogee height: 421 km
right ascension of ascending node: 173.2858°
argument of perigee: 339.5975°
revolutions per day: 15.48988653
mean anomaly at epoch: 167.0679°
orbit number at epoch: 28262

The dashed part of the orbit path shows where the satellite is in the earth's shadow,  

DLR